Regional Weather Roundup
Issued by NWS Charleston, WV

Home | Current Version | Previous Version | Text Only | Print | Product List | Glossary Off
Versions: 1 2 3 4 5 6 7 8 9 10 11 12 13 14 15 16 17 18 19 20 21 22 23 24 25 26 27

000
ASUS41 KRLX 130810
RWRRLX
West Virginia Regional Weather Roundup
National Weather Service Charleston WV
300 AM EST WED DEC 13 2017

Note: "fair" indicates few or no clouds below 12,000 feet with no
significant weather and/or obstructions to visibility.

WVZ003-130900-
Northern Panhandle of West Virginia

CITY           SKY/WX    TMP DP  RH WIND       PRES   REMARKS
WHEELING       CLOUDY    15   1  53 W10G20    29.83R WCI   2
$$

WVZ009-130900-
Northwest West Virginia

CITY           SKY/WX    TMP DP  RH WIND       PRES   REMARKS
PARKERSBURG    FLURRIES  19  14  81 W9        29.94S WCI   8
$$

WVZ006-130900-
Western West Virginia

CITY           SKY/WX    TMP DP  RH WIND       PRES   REMARKS
HUNTINGTON     CLEAR     20   7  57 SW8       29.97F
$$

WVZ015-130900-
West Central West Virginia

CITY           SKY/WX    TMP DP  RH WIND       PRES   REMARKS
CHARLESTON     CLOUDY    21   8  57 W12G18    29.94S WCI   9
$$

WVZ022-031-130900-
North Central West Virginia

CITY           SKY/WX    TMP DP  RH WIND       PRES   REMARKS
CLARKSBURG     CLOUDY    18   8  65 W10       29.86R WCI   6
MORGANTOWN     CLOUDY    16   2  54 W10G17    29.84R WCI   4
$$

WVZ025-035-042-045-130900-
Southern West Virginia

CITY           SKY/WX    TMP DP  RH WIND       PRES   REMARKS
BECKLEY        CLOUDY    14   5  67 W18G25    29.81R WCI  -3
LOGAN            N/A     18   5  57 VRB6      29.91S WCI   9
BLUEFIELD      CLOUDY    14   3  61 W16G26    29.79R WCI  -2
LEWISBURG      CLOUDY    16   8  70 W8G16     29.77S WCI   6
$$

WVZ047-130900-
Northern Mountains of West Virginia

CITY           SKY/WX    TMP DP  RH WIND       PRES   REMARKS
ELKINS         LGT SNOW  15   6  67 NW12      29.78R WCI   2
$$

WVZ052-130900-
Eastern Panhandle of West Virginia

CITY           SKY/WX    TMP DP  RH WIND       PRES   REMARKS
MARTINSBURG    MOCLDY    20   0  41 W14G24    29.76R WCI   7
PETERSBURG     CLOUDY    19   6  55 W13G26    29.80R WCI   7
$$




USA.gov is the U.S. government's official web portal to all federal, state and local government web resources and services.